Flag for Hungary Weather past 2 weeks in Pécs, Hungary

Now
72 °F

Scattered clouds.


Feels Like: 71 °F
Forecast: 65 / 77 °F
Wind: 5 mph from East

Location: Pecs / Pogany

Current Time: Jul 30, 2014 at 8:41:23 AM

Latest Report: Jul 30, 2014 at 8:00 AM


Visibility: 5 mi

Pressure: 29.73 "Hg

Humidity: 85%

Dew point: 67 °F

Location of PécsLocation

Historic Weather in Pécs — Graph

°F

Pécs temperature yesterday

Maximum temperature yesterday: 80 °F (at 5:00 PM)
Minimum temperature yesterday: 63 °F (at 4:00 AM)
Average temperature yesterday: 71 °F

Past Weeks' High & Low Weather Summary

 TemperatureHumidityPressure
High87 °F (Jul 20, 4:00 PM)99% (Jul 29, 7:00 AM)30.05 "Hg (Jul 29, 7:00 AM)
Low60 °F (Jul 24, 6:00 AM)40% (Jul 21, 2:00 PM)29.73 "Hg (Jul 30, 8:00 AM)
Average73 °F71%29.91 "Hg
* Reported Jul 15 8:00 AM — Jul 30 8:00 AM, Pécs, Weather by CustomWeather, © 2014

Note: Actual official high and low records may vary slightly from our data, if they occured in-between our weather recording intervals... More about our weather records

Advertising

Pécs weather history for previous 24 hours

 ConditionsComfort  
Time TempWeatherWind HumidityBarometerVisibility
8:00 AM
Jul 30
72 °FScattered clouds.5 mph85%29.73 "Hg5 mi
7:00 AM68 °FScattered clouds.2 mph96%29.75 "Hg4 mi
6:00 AM66 °FPartly sunny.2 mph96%29.75 "Hg4 mi
5:00 AM68 °FOvercast.3 mph94%29.74 "Hg12 mi
4:00 AM68 °FOvercast.3 mph93%29.76 "Hg12 mi
3:00 AM68 °FOvercast.1 mph91%29.78 "Hg12 mi
2:00 AM69 °FOvercast.1 mph91%29.79 "Hg12 mi
1:00 AM68 °FOvercast.2 mph93%29.79 "Hg12 mi
12:00 AM71 °FOvercast.1 mph85%29.79 "Hg12 mi
11:00 PM
Jul 29
70 °FPassing clouds.No wind88%29.80 "Hg16 mi
10:00 PM71 °FPassing clouds.1 mph80%29.80 "Hg16 mi
9:00 PM73 °FOvercast.1 mph78%29.79 "Hg19 mi
8:00 PM75 °FOvercast.2 mph72%29.79 "Hg25 mi
7:00 PM77 °FOvercast.3 mph66%29.79 "Hg25 mi
6:00 PM78 °FOvercast.3 mph64%29.80 "Hg19 mi
5:00 PM80 °FOvercast.5 mph65%29.80 "Hg25 mi
4:00 PM78 °FOvercast.2 mph61%29.80 "Hg25 mi
3:00 PM79 °FOvercast.2 mph61%29.81 "Hg25 mi
2:00 PM79 °FOvercast.2 mph61%29.81 "Hg25 mi
1:00 PM79 °FOvercast.2 mph62%29.82 "Hg19 mi
12:00 PM77 °FScattered clouds.2 mph68%29.82 "Hg12 mi
11:00 AM75 °FScattered clouds.2 mph71%29.82 "Hg11 mi
10:00 AM72 °FOvercast.1 mph82%29.83 "Hg5 mi
9:00 AM66 °FFog.1 mph99%29.83 "Hg2 mi
8:00 AM65 °FFog.No wind99%29.83 "Hg1 mi
Weather by CustomWeather, © 2014

See weather overviewHow to use our weather pages